Weather History for Cincinnati, OH

Change the Weather History Date:

Monday, September 17, 2012

  Actual Average Record
Temperature  
Mean Temperature 64 °F -  
Max Temperature 73 °F 77 °F 91 °F (1970)
Min Temperature 55 °F 56 °F 40 °F (1959)
Degree Days  
Heating Degree Days 1    
Growing Degree Days 14 (Base 50)    
Moisture  
Dew Point 62 °F    
Average Humidity 88    
Maximum Humidity 97    
Minimum Humidity 71    
Precipitation  
Precipitation 0.01 in - - ()
Sea Level Pressure  
Sea Level Pressure 29.92 in    
Wind  
Wind Speed 2 mph (South)    
Max Wind Speed 8 mph    
Max Gust Speed -    
Visibility 9 miles    
Events Fog , Rain    
Averages and records for this station are not official NWS values.
T = Trace of Precipitation, MM = Missing Value Source: NWS Daily Summary

Daily Weather History Graph

Daily Weather History Graph

Search for Another Location

Airport:

Trip Planner

Search our weather history database for the weather conditions in past years. The results will help you decide how hot, cold, wet, or windy it might be!

Date:

Astronomy

Sep. 17, 2012 Rise Set
Actual Time 7:21 AM EDT 7:42 PM EDT
Civil Twilight 6:54 AM EDT 8:08 PM EDT
Nautical Twilight 6:23 AM EDT 8:40 PM EDT
Astronomical Twilight 5:50 AM EDT 9:12 PM EDT
Moon 9:07 AM EDT (9/17) 8:25 PM EDT (9/17)
Length of Visible Light 13h 14m
Length of Day
12h 20m
Waxing Crescent, 3% of the Moon is Illuminated
Sep 17
Waxing Crescent
Sep 22
First Quarter
Sep 29
Full
Oct 8
Last Quarter
Oct 15
New

Hourly Weather History & Observations

Time (EDT) Temp. Dew Point Humidity Pressure Visibility Wind Dir Wind Speed Gust Speed Precip Events Conditions
12:53 AM 57.9 °F 55.9 °F 93% 30.04 in 10.0 mi Calm Calm - N/A   Clear
1:53 AM 57.0 °F 55.0 °F 93% 30.04 in 10.0 mi Calm Calm - N/A   Clear
2:53 AM 57.0 °F 55.0 °F 93% 30.03 in 10.0 mi NE 3.5 mph - N/A   Mostly Cloudy
3:53 AM 59.0 °F 55.9 °F 90% 30.02 in 10.0 mi Calm Calm - N/A   Overcast
4:53 AM 57.9 °F 55.9 °F 93% 30.01 in 10.0 mi Calm Calm - N/A   Mostly Cloudy
5:53 AM 57.0 °F 55.0 °F 93% 30.00 in 10.0 mi Calm Calm - N/A   Scattered Clouds
6:53 AM 55.9 °F 55.0 °F 97% 30.00 in 10.0 mi Calm Calm - N/A Fog Shallow Fog
7:53 AM 57.2 °F 55.4 °F 94% 30.01 in 10.0 mi Calm Calm - N/A   Partly Cloudy
8:53 AM 60.1 °F 55.9 °F 86% 30.01 in 10.0 mi Calm Calm - N/A   Scattered Clouds
9:53 AM 64.4 °F 57.2 °F 77% 30.01 in 10.0 mi Calm Calm - N/A   Clear
10:53 AM 66.9 °F 60.1 °F 79% 29.99 in 10.0 mi Calm Calm - N/A   Partly Cloudy
11:53 AM 71.1 °F 62.1 °F 73% 29.97 in 10.0 mi Variable 4.6 mph - N/A   Scattered Clouds
12:53 PM 72.0 °F 63.0 °F 73% 29.96 in 10.0 mi South 4.6 mph - N/A   Mostly Cloudy
1:53 PM 73.0 °F 63.0 °F 71% 29.94 in 10.0 mi South 4.6 mph - N/A   Partly Cloudy
2:53 PM 72.0 °F 63.0 °F 73% 29.91 in 10.0 mi SE 4.6 mph - N/A   Overcast
3:42 PM 71.6 °F 64.4 °F 78% 29.91 in 10.0 mi South 6.9 mph - N/A   Overcast
3:53 PM 72.0 °F 64.0 °F 76% 29.90 in 10.0 mi South 6.9 mph - 0.00 in Rain Light Rain
4:17 PM 69.8 °F 66.2 °F 88% 29.90 in 6.0 mi South 8.1 mph - 0.01 in Rain Rain
4:53 PM 69.1 °F 66.0 °F 90% 29.88 in 8.0 mi South 5.8 mph - 0.01 in Rain Light Rain
5:26 PM 68.0 °F 66.2 °F 94% 29.88 in 6.0 mi SSW 6.9 mph - 0.00 in Rain Light Rain
5:53 PM 68.0 °F 66.0 °F 93% 29.86 in 8.0 mi South 4.6 mph - 0.00 in   Overcast
6:34 PM 68.0 °F 66.2 °F 94% 29.86 in 7.0 mi South 3.5 mph - N/A   Overcast
6:50 PM 68.0 °F 66.2 °F 94% 29.85 in 7.0 mi South 4.6 mph - N/A   Overcast
6:53 PM 68.0 °F 66.0 °F 93% 29.85 in 7.0 mi South 3.5 mph - N/A   Overcast
7:53 PM 68.0 °F 66.0 °F 93% 29.84 in 8.0 mi Calm Calm - N/A   Overcast
8:05 PM 68.0 °F 66.2 °F 94% 29.84 in 8.0 mi South 4.6 mph - N/A   Overcast
8:53 PM 66.9 °F 66.0 °F 97% 29.83 in 6.0 mi Calm Calm - N/A   Scattered Clouds
9:08 PM 68.0 °F 66.2 °F 94% 29.83 in 8.0 mi Calm Calm - N/A   Mostly Cloudy
9:32 PM 66.2 °F 64.4 °F 94% 29.83 in 5.0 mi ESE 5.8 mph - N/A   Mostly Cloudy
9:53 PM 66.9 °F 64.9 °F 93% 29.82 in 9.0 mi SE 4.6 mph - N/A   Mostly Cloudy
10:53 PM 66.9 °F 64.9 °F 93% 29.81 in 10.0 mi SSE 3.5 mph - N/A   Overcast
11:53 PM 66.9 °F 64.0 °F 90% 29.79 in 10.0 mi Calm Calm - N/A   Overcast